CZ-3C DEB, 40170

Orbit data source: Space-Track

CZ-3C DEB, 40170 is space debris in HEO originally from a launch on Sun, 31 Oct 2010 UTC launched from the Xichang Space Center, China (XSC). Debris objects in space refer to the collection of defunct objects orbiting the Earth. Examples of debris include non-operational satellites, rocket bodies, and fragments generated from explosions, collisions, or faulty payload assembly.

Loading next visibility...
Identifier
40170, 2010-057Y
Orbit
HEO
Country
Flag of CNCN / PRC
Related business
Manufacturer
CALT
Mission
Spacecraft
Bus & Motor
Unknown
Mass
Unknown
Launch date (UTC)
2010-10-31 (16 years ago)
Launch vehicle
Unknown
Launch site
Xichang Space Center, China (XSC)
Object type
Payload
Rocket body
Debris
Shape & HBR
Unknown shape, 0.3 m
Radar Cross Section
Medium (>0.1 m² and <1 m²)

Expand to show TLE details & history
Last TLE update: 17 hours ago

TLE from 17 hours ago
0 CZ-3C DEB
1 40170U 10057Y   26263.93912503  .00000274  00000-0  72744-2 0  9995
2 40170  20.3819  72.9424 7125329 200.9310 123.9365  2.23803151107876
Epoch: 2026-09-20T22:32Z
TLE epoch observation values (Epoch: 2026-09-20T22:32:20.402Z)
Latitude
2.37163°
Longitude
101.42635°
Altitude
32,940.884 km
Speed
2.032 km/s
True Right ascension
05h 17m 20s
True Declination
2° 22' 09"
Sunlit
Object was in daylight at epoch
Visualization orbit readout
Latitude
Unknown
Longitude
Unknown
Altitude
Unknown
Speed
Unknown
Apparent Right ascension
Unknown
Apparent Declination
Unknown
Sunlit
N/A
Visualization observer readout
Local Sidereal Time
08:59:35
Azimuth
Unknown
Elevation
Unknown
Doppler factor
Unknown
Orbital elements
Apogee altitude
35,908.637 km
Perigee altitude
720.154 km
Semi-major axis
24,692.532 km
Eccentricity
0.71253
Inclination
20.3819°
RAAN
72.9424°
Arg. of periapsis
200.931°
True anomaly
165.93245°
Mean anomaly
123.9365°
Eccentric anomaly
146.4808°
Mean motion
0.55936 °/min
Orbital period
643.59 mins
BSTAR
0.0072744
Loading maneuver chart data...
Computing Atmospheric mass density...
Loading historical data...
Loading historical data...
Loading historical data...
Loading historical data...
Loading historical data...
Loading historical data...
Loading historical data...

Documentation

Showing up to 5 results
|